Weather History for K08D - June, 2013

Change the Weather History Date:

Saturday, June 15, 2013

  Actual Average (KMOT) Record (KMOT)
Temperature  
Mean Temperature 58 °F 64 °F  
Max Temperature 71 °F 75 °F 100 °F (1933)
Min Temperature 46 °F 53 °F 26 °F (1915)
Degree Days  
Heating Degree Days 6    
Cooling Degree Days 0 2  
Month to date cooling degree days 26  
Year to date cooling degree days 42  
Since 1 June cooling degree days 26  
Growing Degree Days 8 (Base 50)    
Moisture  
Dew Point 49 °F    
Average Humidity 70    
Maximum Humidity 100    
Minimum Humidity 38    
Precipitation  
Precipitation 0.00 in 0.13 in 1.04 in (1962)
Month to date precipitation 1.81  
Year to date precipitation 7.20  
Sea Level Pressure  
Sea Level Pressure 29.88 in    
Wind  
Wind Speed 14 mph (WSW)    
Max Wind Speed 31 mph    
Max Gust Speed 44 mph    
Visibility 10 miles    
Events      
T = Trace of Precipitation, MM = Missing Value Source: NWS Daily Summary

Daily Weather History Graph

Daily Weather History Graph

Search for Another Location

Airport or City:

Trip Planner

Search our weather history database for the weather conditions in past years. The results will help you decide how hot, cold, wet, or windy it might be!

Date:

Astronomy

Jun. 15, 2013 Rise Set
Actual Time 5:48 AM CDT 9:52 PM CDT
Civil Twilight 5:06 AM CDT 10:34 PM CDT
Nautical Twilight 4:08 AM CDT 11:32 PM CDT
Astronomical Twilight 2:23 AM CDT 1:18 AM CDT
Moon 12:54 PM CDT (6/15) 1:02 AM CDT (6/15)
Length of Visible Light 17h 27m
Length of Day
16h 04m
Waxing Crescent, 40% of the Moon is Illuminated
Jun 15
Waxing Crescent
Jun 16
First Quarter
Jun 23
Full
Jun 29
Last Quarter
Jul 8
New

Hourly Weather History & Observations

Time (CDT) Temp. Windchill Dew Point Humidity Pressure Visibility Wind Dir Wind Speed Gust Speed Precip Events Conditions
12:15 AM 48.2 °F - 48.2 °F 100% 29.89 in 10.0 mi WSW 8.1 mph - N/A   Clear
12:35 AM 48.2 °F - 48.2 °F 100% 29.89 in 10.0 mi SW 5.8 mph - N/A   Clear
12:55 AM 48.2 °F - 48.2 °F 100% 29.90 in 10.0 mi SSW 6.9 mph - N/A   Partly Cloudy
1:15 AM 48.2 °F - 48.2 °F 100% 29.90 in 10.0 mi South 5.8 mph - N/A   Partly Cloudy
1:35 AM 48.2 °F - 48.2 °F 100% 29.90 in 10.0 mi SSW 4.6 mph - N/A   Clear
1:55 AM 46.4 °F 43.5 °F 46.4 °F 100% 29.90 in 10.0 mi SSW 5.8 mph - N/A   Clear
2:15 AM 48.2 °F - 48.2 °F 100% 29.90 in 10.0 mi SW 8.1 mph - N/A   Clear
2:35 AM 50.0 °F - 50.0 °F 100% 29.90 in 10.0 mi SW 11.5 mph - N/A   Clear
2:55 AM 50.0 °F - 50.0 °F 100% 29.89 in 10.0 mi SW 12.7 mph - N/A   Clear
3:15 AM 51.8 °F - 50.0 °F 94% 29.89 in 10.0 mi SW 12.7 mph - N/A   Clear
3:35 AM 50.0 °F - 50.0 °F 100% 29.89 in 10.0 mi SW 12.7 mph - N/A   Clear
3:55 AM 50.0 °F - 50.0 °F 100% 29.89 in 10.0 mi SW 12.7 mph - N/A   Clear
4:15 AM 50.0 °F - 50.0 °F 100% 29.89 in 10.0 mi SW 10.4 mph - N/A   Clear
4:35 AM 48.2 °F - 48.2 °F 100% 29.89 in 10.0 mi SW 10.4 mph - N/A   Clear
4:55 AM 48.2 °F - 48.2 °F 100% 29.89 in 10.0 mi SW 9.2 mph - N/A   Clear
5:15 AM 50.0 °F - 50.0 °F 100% 29.89 in 10.0 mi SW 11.5 mph - N/A   Clear
5:35 AM 50.0 °F - 50.0 °F 100% 29.89 in 10.0 mi SW 11.5 mph - N/A   Clear
5:55 AM 50.0 °F - 50.0 °F 100% 29.89 in 10.0 mi SW 15.0 mph 20.7 mph N/A   Clear
6:15 AM 51.8 °F - 50.0 °F 94% 29.90 in 10.0 mi SW 17.3 mph 20.7 mph N/A   Clear
6:35 AM 51.8 °F - 50.0 °F 94% 29.89 in 10.0 mi SW 17.3 mph 20.7 mph N/A   Clear
6:55 AM 53.6 °F - 50.0 °F 88% 29.89 in 10.0 mi WSW 15.0 mph - N/A   Clear
7:15 AM 53.6 °F - 50.0 °F 88% 29.89 in 10.0 mi WSW 15.0 mph - N/A   Clear
7:35 AM 55.4 °F - 50.0 °F 82% 29.89 in 10.0 mi WSW 16.1 mph - N/A   Clear
7:55 AM 55.4 °F - 48.2 °F 77% 29.89 in 10.0 mi WSW 17.3 mph 24.2 mph N/A   Clear
8:15 AM 57.2 °F - 48.2 °F 72% 29.89 in 10.0 mi WSW 19.6 mph 24.2 mph N/A   Clear
8:35 AM 57.2 °F - 48.2 °F 72% 29.89 in 10.0 mi WSW 21.9 mph 28.8 mph N/A   Clear
8:55 AM 59.0 °F - 48.2 °F 67% 29.89 in 10.0 mi WSW 19.6 mph 27.6 mph N/A   Clear
9:15 AM 59.0 °F - 50.0 °F 72% 29.89 in 10.0 mi West 18.4 mph 23.0 mph N/A   Clear
9:55 AM 60.8 °F - 48.2 °F 63% 29.88 in 10.0 mi West 23.0 mph 31.1 mph N/A   Clear
10:15 AM 62.6 °F - 46.4 °F 55% 29.88 in 10.0 mi West 23.0 mph 33.4 mph N/A   Clear
10:35 AM 62.6 °F - 48.2 °F 59% 29.88 in 10.0 mi West 21.9 mph 31.1 mph N/A   Clear
10:55 AM 62.6 °F - 48.2 °F 59% 29.88 in 10.0 mi WSW 26.5 mph 31.1 mph N/A   Clear
11:15 AM 64.4 °F - 48.2 °F 56% 29.87 in 10.0 mi West 24.2 mph 29.9 mph N/A   Clear
11:35 AM 64.4 °F - 46.4 °F 52% 29.87 in 10.0 mi West 28.8 mph 36.8 mph N/A   Clear
11:55 AM 66.2 °F - 48.2 °F 52% 29.87 in 10.0 mi West 31.1 mph 36.8 mph N/A   Clear
12:15 PM 66.2 °F - 48.2 °F 52% 29.87 in 10.0 mi West 28.8 mph 38.0 mph N/A   Clear
12:35 PM 66.2 °F - 48.2 °F 52% 29.87 in 10.0 mi West 25.3 mph 36.8 mph N/A   Partly Cloudy
12:55 PM 68.0 °F - 48.2 °F 49% 29.87 in 10.0 mi West 29.9 mph 35.7 mph N/A   Partly Cloudy
1:15 PM 68.0 °F - 48.2 °F 49% 29.87 in 10.0 mi West 29.9 mph 39.1 mph N/A   Partly Cloudy
1:35 PM 68.0 °F - 46.4 °F 46% 29.87 in 10.0 mi West 27.6 mph 36.8 mph N/A   Partly Cloudy
1:55 PM 68.0 °F - 48.2 °F 49% 29.87 in 10.0 mi West 26.5 mph 35.7 mph N/A   Scattered Clouds
2:15 PM 68.0 °F - 46.4 °F 46% 29.87 in 10.0 mi West 23.0 mph 39.1 mph N/A   Partly Cloudy
2:35 PM 69.8 °F - 46.4 °F 43% 29.86 in 10.0 mi West 25.3 mph 43.7 mph N/A   Partly Cloudy
2:55 PM 69.8 °F - 46.4 °F 43% 29.86 in 10.0 mi West 24.2 mph 39.1 mph N/A   Partly Cloudy
3:15 PM 71.6 °F - 46.4 °F 41% 29.86 in 10.0 mi West 24.2 mph 39.1 mph N/A   Partly Cloudy
3:35 PM 71.6 °F - 46.4 °F 41% 29.86 in 10.0 mi West 24.2 mph 41.4 mph N/A   Scattered Clouds
3:55 PM 71.6 °F - 46.4 °F 41% 29.85 in 10.0 mi West 28.8 mph 39.1 mph N/A   Scattered Clouds
4:15 PM 71.6 °F - 46.4 °F 41% 29.85 in 10.0 mi West 23.0 mph 35.7 mph N/A   Scattered Clouds
4:35 PM 71.6 °F - 46.4 °F 41% 29.85 in 10.0 mi West 21.9 mph 35.7 mph N/A   Scattered Clouds
4:55 PM 71.6 °F - 46.4 °F 41% 29.85 in 10.0 mi West 23.0 mph 42.6 mph N/A   Scattered Clouds
5:15 PM 71.6 °F - 44.6 °F 38% 29.85 in 10.0 mi West 25.3 mph 40.3 mph N/A   Mostly Cloudy
5:35 PM 71.6 °F - 46.4 °F 41% 29.85 in 10.0 mi West 26.5 mph 36.8 mph N/A   Partly Cloudy
5:55 PM 71.6 °F - 46.4 °F 41% 29.85 in 10.0 mi West 20.7 mph 31.1 mph N/A   Clear
6:15 PM 71.6 °F - 44.6 °F 38% 29.86 in 10.0 mi West 24.2 mph 33.4 mph N/A   Clear
6:35 PM 71.6 °F - 46.4 °F 41% 29.86 in 10.0 mi West 23.0 mph 29.9 mph N/A   Mostly Cloudy
6:55 PM 71.6 °F - 46.4 °F 41% 29.86 in 10.0 mi West 17.3 mph 29.9 mph N/A   Mostly Cloudy
7:15 PM 69.8 °F - 46.4 °F 43% 29.86 in 10.0 mi West 18.4 mph 24.2 mph N/A   Scattered Clouds
7:35 PM 68.0 °F - 48.2 °F 49% 29.86 in 10.0 mi West 18.4 mph 24.2 mph N/A   Mostly Cloudy
7:55 PM 69.8 °F - 48.2 °F 46% 29.86 in 10.0 mi WNW 15.0 mph 23.0 mph N/A   Mostly Cloudy
8:15 PM 68.0 °F - 50.0 °F 52% 29.87 in 10.0 mi WNW 12.7 mph 18.4 mph N/A   Mostly Cloudy
8:35 PM 68.0 °F - 50.0 °F 52% 29.87 in 10.0 mi WNW 6.9 mph - N/A   Mostly Cloudy
8:55 PM 66.2 °F - 50.0 °F 56% 29.87 in 10.0 mi West 6.9 mph - N/A   Scattered Clouds
9:15 PM 64.4 °F - 51.8 °F 64% 29.87 in 10.0 mi West 8.1 mph - N/A   Clear
9:35 PM 60.8 °F - 53.6 °F 77% 29.87 in 10.0 mi West 8.1 mph - N/A   Partly Cloudy
9:55 PM 59.0 °F - 51.8 °F 77% 29.87 in 10.0 mi West 10.4 mph - N/A   Partly Cloudy
10:15 PM 55.4 °F - 53.6 °F 94% 29.88 in 10.0 mi WSW 8.1 mph - N/A   Partly Cloudy
10:35 PM 55.4 °F - 53.6 °F 94% 29.88 in 10.0 mi WSW 5.8 mph - N/A   Mostly Cloudy
10:55 PM 55.4 °F - 53.6 °F 94% 29.89 in 10.0 mi WSW 6.9 mph - N/A   Mostly Cloudy
11:15 PM 55.4 °F - 53.6 °F 94% 29.88 in 10.0 mi WSW 8.1 mph - N/A   Scattered Clouds
11:35 PM 55.4 °F - 53.6 °F 94% 29.88 in 10.0 mi WSW 9.2 mph - N/A   Clear
11:55 PM 55.4 °F - 53.6 °F 94% 29.89 in 10.0 mi WSW 9.2 mph - N/A   Clear